Change the Weather History Date:

Tuesday, February 19, 2013

  Actual Average Record
Temperature  
Mean Temperature 2 °F 18 °F  
Max Temperature 6 °F 28 °F 56 °F (1981)
Min Temperature -2 °F 9 °F -26 °F (1910)
Degree Days  
Heating Degree Days 63 47  
Month to date heating degree days 979 942  
Since 1 July heating degree days 5849 6044  
Cooling Degree Days 0 0  
Month to date cooling degree days 0 0  
Year to date cooling degree days 0 0  
Moisture  
Dew Point -8 °F    
Average Humidity 66    
Maximum Humidity 76    
Minimum Humidity 55    
Precipitation  
Precipitation T in 0.03 in 0.53 in (1971)
Month to date precipitation 1.21 0.35  
Year to date precipitation 1.66 1.00  
Snow  
Snow T in 0.20 in 4.90 in (1951)
Month to date snowfall 15.3 4.4  
Since 1 July snowfall 36.0 31.6  
Snow Depth 13.00 in    
Sea Level Pressure  
Sea Level Pressure 30.19 in    
Wind  
Wind Speed 15 mph (NW)    
Max Wind Speed 25 mph    
Max Gust Speed 33 mph    
Visibility 10 miles    
Events      
T = Trace of Precipitation, MM = Missing Value Source: NWS Daily Summary

Daily Weather History Graph

Daily Weather History Graph

Search for Another Location

Airport or City:

Trip Planner

Search our weather history database for the weather conditions in past years. The results will help you decide how hot, cold, wet, or windy it might be!

Date:

Astronomy

Feb. 19, 2013 Rise Set
Actual Time 7:11 AM CST 5:49 PM CST
Civil Twilight 6:41 AM CST 6:19 PM CST
Nautical Twilight 6:06 AM CST 6:54 PM CST
Astronomical Twilight 5:32 AM CST 7:28 PM CST
Moon 12:12 PM CST (2/19) 2:52 AM CST (2/19)
Length of Visible Light 11h 38m
Length of Day
10h 38m
Waxing Gibbous, 67% of the Moon is Illuminated
Feb 19
Waxing Gibbous
Feb 25
Full
Mar 4
Last Quarter
Mar 11
New
Mar 19
First Quarter

Hourly Weather History & Observations

Time (CST) Temp. Windchill Dew Point Humidity Pressure Visibility Wind Dir Wind Speed Gust Speed Precip Events Conditions
12:53 AM 3.9 °F -17.6 °F -2.9 °F 73% 29.94 in 8.0 mi NW 21.9 mph 28.8 mph 0.00 in   Scattered Clouds
1:53 AM 3.9 °F -16.1 °F -4.0 °F 70% 29.96 in 10.0 mi NW 18.4 mph 27.6 mph N/A   Clear
2:42 AM 3.2 °F -18.1 °F -4.0 °F 72% 29.89 in 9.0 mi NW 20.7 mph 28.8 mph N/A   Mostly Cloudy
2:53 AM 3.9 °F -15.6 °F -4.0 °F 70% 29.99 in 9.0 mi NW 17.3 mph 29.9 mph N/A   Overcast
3:53 AM 3.0 °F -16.7 °F -5.1 °F 69% 30.01 in 10.0 mi NW 17.3 mph 25.3 mph N/A   Overcast
4:53 AM 1.9 °F -19.2 °F -6.0 °F 69% 30.04 in 10.0 mi NW 19.6 mph 25.3 mph N/A   Mostly Cloudy
5:53 AM 1.9 °F -17.5 °F -7.1 °F 66% 30.06 in 10.0 mi NW 16.1 mph - N/A   Mostly Cloudy
6:53 AM 1.0 °F -16.6 °F -7.1 °F 69% 30.10 in 10.0 mi NW 12.7 mph 21.9 mph N/A   Mostly Cloudy
7:04 AM 1.4 °F -17.6 °F -7.6 °F 66% 30.00 in 10.0 mi NW 15.0 mph - N/A   Partly Cloudy
7:53 AM 1.0 °F -18.0 °F -8.0 °F 66% 30.14 in 10.0 mi NNW 15.0 mph 23.0 mph N/A   Clear
8:53 AM -2.0 °F -22.6 °F -9.9 °F 69% 30.18 in 10.0 mi WNW 16.1 mph - N/A   Clear
9:53 AM -0.0 °F -19.4 °F -9.9 °F 63% 30.19 in 10.0 mi NW 15.0 mph 21.9 mph N/A   Clear
10:53 AM 1.0 °F -20.9 °F -9.0 °F 63% 30.22 in 10.0 mi NW 20.7 mph 28.8 mph N/A   Clear
12:53 PM 1.9 °F -18.7 °F -8.0 °F 63% 30.25 in 10.0 mi WNW 18.4 mph 25.3 mph N/A   Clear
1:53 PM 3.9 °F -17.1 °F -8.0 °F 58% 30.25 in 10.0 mi NW 20.7 mph - N/A   Clear
2:53 PM 5.0 °F -13.6 °F -7.1 °F 58% 30.27 in 10.0 mi NW 16.1 mph 21.9 mph N/A   Clear
3:53 PM 5.0 °F -14.7 °F -7.1 °F 58% 30.30 in 10.0 mi NW 18.4 mph 24.2 mph N/A   Clear
4:53 PM 6.1 °F -10.9 °F -7.1 °F 55% 30.32 in 10.0 mi NW 13.8 mph - N/A   Clear
6:53 PM 3.0 °F -12.5 °F -9.0 °F 57% 30.37 in 10.0 mi NNW 10.4 mph - N/A   Clear
7:53 PM 1.9 °F -12.9 °F -9.9 °F 58% 30.40 in 10.0 mi NNW 9.2 mph - N/A   Clear
8:53 PM 1.0 °F -14.0 °F -9.9 °F 60% 30.43 in 10.0 mi NNW 9.2 mph - N/A   Clear
9:53 PM 1.0 °F -14.9 °F -9.9 °F 60% 30.43 in 10.0 mi North 10.4 mph - N/A   Clear
10:53 PM -0.9 °F -14.1 °F -9.9 °F 66% 30.45 in 10.0 mi NW 6.9 mph - N/A   Clear
11:53 PM -2.0 °F -15.4 °F -11.0 °F 66% 30.47 in 10.0 mi NNW 6.9 mph - N/A   Clear